This is the latest recevied weather packets stored in our database for station/object SR2CPA-13. If no packets are shown the sender has not sent any weather packets the latest 1 day(s).
| Time | Temp. | Humidity | Pressure | Rain* | Wind** | Luminosity | Snow |
|---|---|---|---|---|---|---|---|
| 1836274523 | 13.33° C | 99% | 0 hPa | 0 mm | 0 m/s | - | - |
| 1836274393 | 13.33° C | 99% | 0 hPa | 0 mm | 0 m/s | - | - |
| 1836273923 | 13.89° C | 99% | 0 hPa | 0 mm | 0 m/s | - | - |
| 1778019238 | 9.44° C | 99% | 0 hPa | 0 mm | 0.89 m/s, 74° | - | - |
| 1778018638 | 9.44° C | 99% | 0 hPa | 0 mm | 3.13 m/s, 74° | - | - |
| 1778018018 | 10° C | 99% | 0 hPa | 0 mm | 1.79 m/s, 7° | - | - |
| 1778017418 | 10° C | 99% | 0 hPa | 0 mm | 0.89 m/s, 58° | - | - |
| 1778016798 | 10° C | 99% | 0 hPa | 0 mm | 1.79 m/s, 67° | - | - |
| 1778016198 | 10° C | 99% | 0 hPa | 0 mm | 0.89 m/s, 78° | - | - |
| 1778015598 | 10° C | 99% | 0 hPa | 0 mm | 1.34 m/s, 62° | - | - |
| 1778014998 | 10° C | 99% | 0 hPa | 0 mm | 1.34 m/s, 68° | - | - |
| 1778014398 | 10° C | 99% | 0 hPa | 0 mm | 1.79 m/s, 48° | - | - |
| 1778013798 | 10° C | 99% | 0 hPa | 0 mm | 0.45 m/s, 33° | - | - |
| 1778013178 | 9.44° C | 99% | 0 hPa | 0 mm | 1.34 m/s, 48° | - | - |
| 1778012578 | 9.44° C | 99% | 0 hPa | 0 mm | 1.79 m/s, 41° | - | - |
| 1778011978 | 9.44° C | 99% | 0 hPa | 0 mm | 0.45 m/s, 62° | - | - |
| 1778011358 | 9.44° C | 99% | 0 hPa | 0 mm | 0.89 m/s, 56° | - | - |
| 1778010758 | 9.44° C | 99% | 0 hPa | 0 mm | 0.45 m/s, 48° | - | - |
| 1778010138 | 10° C | 99% | 0 hPa | 0 mm | 0.45 m/s, 67° | - | - |
| 1778009538 | 10° C | 99% | 0 hPa | 0 mm | 0 m/s | - | - |
| 1778008918 | 10° C | 99% | 0 hPa | 0 mm | 0.45 m/s, 67° | - | - |
| 1778008318 | 10° C | 99% | 0 hPa | 0 mm | 0.45 m/s, 50° | - | - |
| 1778007718 | 10.56° C | 99% | 0 hPa | 0 mm | 0 m/s | - | - |
| 1778007098 | 10.56° C | 99% | 0 hPa | 0 mm | 0.45 m/s, 54° | - | - |
| 1778006497 | 10.56° C | 99% | 0 hPa | 0 mm | 0.45 m/s, 24° | - | - |
* Rain latest hour (hover to see other rain measurements)
** Current wind speed in m/s (hover to see current wind gust speed)